[[{"header":{"parameterUnit":"m.s-1","parameterCategory":2,"la1":30.2991,"la2":30.254,"lo1":-89.0895,"lo2":-89.0444,"dy":0.0017,"dx":0.0017,"nx":28,"ny":28,"refTime":"2024-04-25T03:00:00:Z","depth":"0","parameterNumber":2,"parameterNumberName":"U-component_of_CURRENTS"},"data":[0,0,0,0,0,0,0,0,0,0,0,0,0,0,0,0,0,0,0,0,0,0,0,0,0,0,0,0,0,0,0,0,0,0,0,0,0,0,0,0,0,0,0,0,0,0,0,0,0,0,0,0,0,0,0,0,0,0,0.1413,0.1413,0,0.1469,0.147,0.147,0.1476,0.1475,0.1475,0.1474,0.1535,0.1537,0.1539,0,0,0,0,0,0,0,0,0,0,0,0,0,0.1326,0.1328,0.1413,0.1413,0.1414,0.1469,0.147,0.147,0.1476,0.1475,0.1474,0.1474,0.1534,0.1537,0.1539,0,0,0,0,0,0,0,0,0,0,0,0,0,0.1371,0.1328,0.1412,0.1423,0.1425,0.1469,0.147,0.1471,0.1476,0.1475,0.1474,0.1473,0.1533,0.1537,0.154,0.1577,0,0,0.155,0.1551,0,0,0,0,0,0,0,0,0.1368,0.1374,0.1421,0.1423,0.1425,0.1464,0.1461,0.1506,0.1476,0.1457,0.1474,0.1473,0.1513,0.1517,0.153,0.158,0.1583,0.155,0.1552,0.1553,0.1554,0,0,0,0,0,0,0,0.1365,0.1372,0.1435,0.1422,0.1424,0.1431,0.1436,0.147,0.1489,0.1458,0.1459,0.1465,0.1513,0.1527,0.1531,0.1584,0.155,0.1553,0.1555,0.1556,0.1713,0.1716,0,0,0,0,0,0,0.1359,0.1369,0.1433,0.1437,0.1394,0.1433,0.1439,0.1452,0.1488,0.1493,0.1466,0.1465,0.1522,0.1527,0.1533,0.1602,0.1553,0.1556,0.1558,0.1711,0.1714,0.1716,0,0,0,0,0,0,0.1357,0.1364,0.1431,0.1403,0.1412,0.1436,0.1451,0.1454,0.1467,0.1494,0.1499,0.1476,0.1521,0.1529,0.1578,0.1603,0.1558,0.1561,0.1709,0.1712,0.1715,0.1725,0,0,0,0,0,0,0.1354,0.1364,0.1374,0.1403,0.1414,0.1471,0.1452,0.1456,0.1473,0.1473,0.1504,0.1509,0.1521,0.1574,0.1582,0.1607,0.1563,0.1706,0.171,0.1714,0.1722,0.1728,0.1733,0,0,0,0,0,0.1351,0.1373,0.1375,0.1382,0.1427,0.1472,0.1479,0.1491,0.1474,0.1496,0.1515,0.1508,0.1606,0.1578,0.1587,0.1614,0.1704,0.1709,0.1714,0.1719,0.1727,0.1733,0,0,0,0,0,0,0.1343,0.1376,0.1379,0.1409,0.1443,0.1473,0.1493,0.1494,0.1526,0.1522,0.1535,0.1543,0.1596,0.1612,0.1581,0.1676,0.1655,0.1662,0.1656,0.1664,0.1669,0.1697,0.1566,0,0,0,0,0,0.1345,0.1369,0.1403,0.1429,0.1445,0.1467,0.1484,0.1495,0.1524,0.1535,0.1557,0.1587,0.1626,0.1648,0.1685,0.1736,0.1832,0.1763,0.1769,0.1774,0.1806,0.1979,0.2005,0.1733,0.1733,0.1733,0,0,0.1347,0.137,0.1383,0.1429,0.1451,0.1486,0.1476,0.151,0.1536,0.1539,0.1582,0.1608,0.1645,0.1702,0.1728,0.1716,0.1905,0.178,0.1783,0.1814,0.1988,0.2014,0.2038,0.1736,0.1736,0.1735,0,0,0.1371,0.1387,0.1417,0.1447,0.1487,0.1504,0.1513,0.1551,0.1565,0.1613,0.1621,0.1674,0.1721,0.1764,0.1787,0.1856,0.1929,0.1856,0.1909,0.2075,0.21,0.2122,0.2292,0.2329,0.1859,0.1859,0.1859,0,0.1373,0.1412,0.1434,0.1473,0.1494,0.1511,0.1545,0.1572,0.162,0.1649,0.1632,0.1745,0.1759,0.1851,0.1867,0.1869,0.1983,0.1867,0.2085,0.2109,0.2132,0.23,0.2342,0.186,0.186,0.186,0.186,0,0.1422,0.145,0.1472,0.152,0.1551,0.1585,0.1619,0.165,0.1659,0.1696,0.1785,0.1827,0.1906,0.1905,0.1901,0.2058,0.2094,0.207,0.2064,0.216,0.2331,0.2374,0.1862,0.1862,0.1861,0.1861,0,0,0.1431,0.1492,0.1499,0.1521,0.1574,0.1604,0.1649,0.171,0.1772,0.1811,0.1916,0.1957,0.2,0.2033,0.2049,0.217,0.2409,0.2188,0.2197,0.2354,0.2813,0.2752,0.2793,0.2431,0.2438,0.2443,0.2871,0,0.146,0.1522,0.1548,0.1602,0.1633,0.1661,0.1712,0.177,0.1835,0.1948,0.2001,0.2116,0.2044,0.2114,0.2218,0.2376,0.2522,0.2297,0.27,0.2713,0.2644,0.284,0.2732,0.3097,0.2914,0.2921,0.2926,0,0.1501,0.1534,0.1586,0.1642,0.1661,0.1696,0.1791,0.1848,0.1993,0.206,0.2175,0.2253,0.2427,0.2363,0.269,0.2558,0.2697,0.2803,0.2821,0.2796,0.2732,0.2971,0.3182,0.3071,0.2993,0.2987,0.2983,0,0.1497,0.1559,0.1593,0.1613,0.1687,0.1713,0.1756,0.188,0.1979,0.2172,0.2307,0.2477,0.2636,0.2814,0.2982,0.2892,0.3363,0.327,0.3352,0.335,0.3354,0.3338,0.3503,0.3542,0.3541,0.354,0.3539,0,0.152,0.1551,0.159,0.1614,0.1678,0.172,0.1836,0.1912,0.2095,0.2282,0.238,0.259,0.2768,0.3019,0.3124,0.339,0.3493,0.3437,0.3481,0.3351,0.3331,0.3304,0.3223,0.3556,0.3553,0.355,0.3547,0,0.1548,0.1552,0.1613,0.1671,0.1682,0.1743,0.1877,0.2019,0.2148,0.2416,0.2506,0.2778,0.3092,0.3252,0.3601,0.3609,0.3747,0.3895,0.372,0.3733,0.3619,0.3541,0.366,0.3555,0.4088,0.4089,0.409,0,0.1581,0.1612,0.1668,0.1715,0.1745,0.1825,0.1932,0.2045,0.2224,0.2544,0.2724,0.3054,0.3278,0.3712,0.383,0.4052,0.3874,0.4065,0.3836,0.3667,0.3618,0.3399,0.3283,0.388,0.388,0.3879,0.3879,0,0.1687,0.1701,0.1759,0.1839,0.1924,0.2015,0.2158,0.2262,0.2468,0.2661,0.2956,0.3132,0.3525,0.3699,0.3943,0.404,0.3836,0.4057,0.3966,0.3558,0.3259,0.3158,0.3536,0.3874,0.3874,0.3875,0.3875,0.3875,0.1798,0.1864,0.1932,0.2005,0.2095,0.2183,0.2226,0.2398,0.2573,0.2809,0.3035,0.3231,0.3525,0.3826,0.3894,0.3917,0.3833,0.3828,0.3792,0.3618,0.3364,0.3712,0.4005,0.4006,0.4007,0.4008,0.4009,0,0.1946,0.2004,0.2101,0.2157,0.224,0.2253,0.2391,0.2416,0.2546,0.2804,0.2976,0.3241,0.3417,0.3597,0.3768,0.3687,0.3473,0.3592,0.328,0.321,0.3652,0.348,0.3566,0.3566,0.3566,0.3566,0.3566,0.3566,0.2032,0.2137,0.216,0.2262,0.2295,0.234,0.2366,0.239,0.2506,0.2662,0.2805,0.2981,0.3289,0.3527,0.3527,0.345,0.3179,0.3058,0.3008,0.3321,0.3337,0.3353,0.3172,0.3193,0.3192,0.2428,0.2423,0.2419]},{"header":{"parameterUnit":"m.s-1","parameterCategory":2,"la1":30.2991,"la2":30.254,"lo1":-89.0895,"lo2":-89.0444,"dy":0.0017,"dx":0.0017,"nx":28,"ny":28,"refTime":"2024-04-25T03:00:00:Z","depth":"0","parameterNumber":3,"parameterNumberName":"V-component_of_CURRENTS"},"data":[0,0,0,0,0,0,0,0,0,0,0,0,0,0,0,0,0,0,0,0,0,0,0,0,0,0,0,0,0,0,0,0,0,0,0,0,0,0,0,0,0,0,0,0,0,0,0,0,0,0,0,0,0,0,0,0,0,0,0.0073,0.0073,0,0.0078,0.0078,0.0078,0.0079,0.0078,0.0078,0.0078,0.0075,0.0075,0.0075,0,0,0,0,0,0,0,0,0,0,0,0,0,0.0052,0.0053,0.0073,0.0073,0.0073,0.0077,0.0078,0.0078,0.0079,0.0078,0.0078,0.0078,0.0075,0.0075,0.0075,0,0,0,0,0,0,0,0,0,0,0,0,0,0.006,0.0053,0.0073,0.0074,0.0074,0.0077,0.0078,0.0078,0.0079,0.0078,0.0078,0.0078,0.0075,0.0075,0.0075,0.0077,0,0,0.0074,0.0074,0,0,0,0,0,0,0,0,0.006,0.0061,0.0074,0.0074,0.0074,0.0077,0.0069,0.0077,0.0079,0.0077,0.0078,0.0078,0.0074,0.0074,0.0076,0.0077,0.0076,0.0074,0.0074,0.0074,0.0074,0,0,0,0,0,0,0,0.0059,0.006,0.0075,0.0074,0.0074,0.0069,0.007,0.007,0.0077,0.0077,0.0077,0.0077,0.0074,0.0076,0.0076,0.0076,0.0074,0.0074,0.0074,0.0074,0.008,0.0081,0,0,0,0,0,0,0.0058,0.006,0.0075,0.0076,0.0066,0.007,0.0071,0.0076,0.0077,0.0077,0.0077,0.0077,0.0076,0.0076,0.0076,0.0081,0.0074,0.0074,0.0074,0.008,0.008,0.0081,0,0,0,0,0,0,0.0058,0.006,0.0075,0.0067,0.0069,0.007,0.0076,0.0077,0.0077,0.0077,0.0076,0.0077,0.0076,0.0076,0.0078,0.008,0.0074,0.0074,0.008,0.008,0.0081,0.0088,0,0,0,0,0,0,0.0058,0.006,0.0066,0.0067,0.0069,0.0082,0.0076,0.0077,0.0077,0.0077,0.0077,0.0077,0.0076,0.0078,0.0078,0.008,0.0074,0.008,0.008,0.008,0.0088,0.0089,0.009,0,0,0,0,0,0.0057,0.007,0.0066,0.0068,0.0076,0.0082,0.0083,0.0084,0.0077,0.0083,0.0079,0.0076,0.008,0.0078,0.0078,0.008,0.008,0.008,0.008,0.0087,0.0089,0.009,0,0,0,0,0,0,0.0068,0.0071,0.0067,0.0081,0.0081,0.0082,0.0087,0.0083,0.0085,0.0084,0.0079,0.0079,0.0081,0.008,0.0078,0.0083,0.0079,0.008,0.0085,0.0086,0.0087,0.0129,0.0074,0,0,0,0,0,0.0071,0.0078,0.0078,0.0088,0.0088,0.0085,0.0087,0.0088,0.0088,0.0088,0.0088,0.0086,0.0083,0.0083,0.0084,0.0087,0.0131,0.0089,0.009,0.009,0.0125,0.0203,0.0216,0.0082,0.0082,0.0082,0,0,0.0076,0.0079,0.0082,0.009,0.0088,0.0086,0.0086,0.0092,0.0089,0.0088,0.0088,0.009,0.0084,0.0088,0.0089,0.0087,0.0144,0.0091,0.0092,0.0127,0.0205,0.0219,0.0231,0.0082,0.0082,0.0082,0,0,0.0085,0.0092,0.0096,0.0098,0.0099,0.0094,0.0094,0.0097,0.0099,0.0101,0.0096,0.0111,0.0098,0.0109,0.0106,0.0115,0.0146,0.01,0.0142,0.0216,0.0229,0.024,0.0287,0.0303,0.0102,0.0102,0.0102,0,0.0088,0.0093,0.0099,0.0102,0.0097,0.0094,0.0091,0.0093,0.0097,0.0122,0.0102,0.0141,0.0115,0.0151,0.0138,0.012,0.0163,0.0134,0.022,0.0233,0.0245,0.0291,0.0309,0.0102,0.0102,0.0102,0.0102,0,0.0099,0.0098,0.0101,0.0095,0.0097,0.0096,0.0094,0.0108,0.0106,0.0127,0.0175,0.0169,0.0214,0.0181,0.0151,0.0219,0.0221,0.0212,0.0223,0.026,0.0304,0.0323,0.0103,0.0103,0.0103,0.0103,0,0,0.011,0.0105,0.0105,0.0108,0.0091,0.0105,0.0101,0.0125,0.0194,0.0184,0.0282,0.0235,0.0286,0.0288,0.0274,0.031,0.0386,0.0292,0.0296,0.0349,0.0547,0.0488,0.0502,0.04,0.0404,0.0407,0.0535,0,0.0107,0.0107,0.0103,0.0106,0.0103,0.0109,0.0134,0.0167,0.0213,0.0318,0.0328,0.0419,0.031,0.0376,0.0382,0.0416,0.044,0.0352,0.0497,0.0501,0.0453,0.0524,0.0419,0.0521,0.0553,0.0557,0.0559,0,0.0114,0.0111,0.0106,0.0139,0.0146,0.0158,0.0243,0.0273,0.0397,0.0462,0.0547,0.0599,0.0657,0.0579,0.0636,0.0592,0.0568,0.0566,0.0571,0.0538,0.0478,0.0494,0.0553,0.0299,0.0587,0.0585,0.0583,0,0.0124,0.0122,0.0119,0.0121,0.0155,0.0183,0.0215,0.0324,0.0448,0.0597,0.0759,0.0796,0.092,0.0875,0.083,0.0765,0.0911,0.0827,0.0746,0.074,0.0694,0.0678,0.054,0.0879,0.0879,0.0878,0.0878,0,0.0126,0.0137,0.0135,0.0144,0.0226,0.0223,0.0379,0.0441,0.0633,0.087,0.0864,0.1093,0.1014,0.1082,0.0949,0.0922,0.1008,0.079,0.0789,0.0686,0.0669,0.0479,0.0367,0.0883,0.0882,0.0881,0.088,0,0.0176,0.0139,0.0187,0.0218,0.0238,0.0321,0.0507,0.0693,0.0804,0.1128,0.1211,0.1383,0.1455,0.1333,0.132,0.1141,0.094,0.103,0.0894,0.0873,0.0502,0.0396,0.0375,0.0285,0.0963,0.0963,0.0963,0,0.0211,0.0227,0.0283,0.0371,0.0399,0.0517,0.0675,0.0786,0.1018,0.1341,0.1559,0.1701,0.1863,0.1761,0.1447,0.1211,0.0992,0.0963,0.0792,0.0498,0.038,0.0317,0.0238,0.0726,0.0724,0.0722,0.0721,0,0.0356,0.0375,0.0444,0.0592,0.0737,0.0909,0.1111,0.1287,0.1505,0.1739,0.208,0.2207,0.2098,0.1848,0.1477,0.1261,0.0753,0.0916,0.0671,0.0243,0.0117,0.0023,0.0602,0.0704,0.0706,0.0707,0.0708,0.0709,0.0539,0.0648,0.076,0.0908,0.1071,0.1305,0.1457,0.1698,0.1996,0.2322,0.2428,0.2572,0.2153,0.1626,0.132,0.0591,0.0671,0.0337,0.0255,0.0236,0.0073,0.0598,0.0652,0.0654,0.0655,0.0656,0.0657,0,0.0833,0.0936,0.1094,0.1277,0.1478,0.1493,0.1794,0.1949,0.2255,0.2503,0.2712,0.2504,0.1954,0.1354,0.0435,-0.001,-0.0165,-0.0258,-0.041,-0.044,0.0068,-0.0031,-0.0193,-0.0193,-0.0192,-0.0192,-0.0192,-0.0192,0.102,0.1238,0.1288,0.1619,0.1732,0.199,0.2133,0.2328,0.2488,0.2684,0.268,0.2688,0.217,0.0658,-0.042,-0.066,-0.0925,-0.0984,-0.1047,-0.08,-0.0753,-0.0709,-0.0833,-0.1161,-0.1162,-0.1569,-0.1574,-0.1578]}],[{"header":{"parameterUnit":"m.s-1","parameterCategory":2,"la1":30.2991,"la2":30.254,"lo1":-89.0895,"lo2":-89.0444,"dy":0.0017,"dx":0.0017,"nx":28,"ny":28,"refTime":"2024-04-25T03:00:00:Z","depth":"2","parameterNumber":2,"parameterNumberName":"U-component_of_CURRENTS"},"data":[0,0,0,0,0,0,0,0,0,0,0,0,0,0,0,0,0,0,0,0,0,0,0,0,0,0,0,0,0,0,0,0,0,0,0,0,0,0,0,0,0,0,0,0,0,0,0,0,0,0,0,0,0,0,0,0,0,0,0.1305,0.1305,0,0.1346,0.1346,0.1347,0.1354,0.1353,0.1353,0.1352,0.1397,0.1398,0.14,0,0,0,0,0,0,0,0,0,0,0,0,0,0.1259,0.126,0.1305,0.1305,0.1305,0.1345,0.1346,0.1347,0.1354,0.1353,0.1352,0.1352,0.1396,0.1398,0.14,0,0,0,0,0,0,0,0,0,0,0,0,0,0.129,0.126,0.1304,0.1312,0.1312,0.1345,0.1346,0.1347,0.1354,0.1353,0.1352,0.1351,0.1395,0.1398,0.14,0.1434,0,0,0.1408,0.1409,0,0,0,0,0,0,0,0,0.1288,0.1292,0.131,0.1311,0.1312,0.1341,0.1346,0.1376,0.1354,0.1341,0.1352,0.1351,0.1377,0.1382,0.1395,0.1436,0.1438,0.1409,0.141,0.1411,0.1412,0,0,0,0,0,0,0,0.1286,0.129,0.1323,0.1311,0.1312,0.1322,0.1325,0.1352,0.1366,0.1342,0.1342,0.1343,0.1378,0.1392,0.1396,0.1438,0.1408,0.1411,0.1412,0.1413,0.1538,0.154,0,0,0,0,0,0,0.1276,0.1288,0.1322,0.1324,0.1295,0.1323,0.1327,0.1335,0.1365,0.1368,0.1343,0.1343,0.1388,0.1393,0.1397,0.147,0.1411,0.1414,0.1415,0.1536,0.1538,0.154,0,0,0,0,0,0,0.1275,0.1279,0.132,0.1305,0.131,0.1324,0.1333,0.1336,0.1354,0.1366,0.1369,0.1358,0.1388,0.1394,0.143,0.147,0.1415,0.1417,0.1534,0.1537,0.1539,0.1594,0,0,0,0,0,0,0.1273,0.1278,0.1287,0.1304,0.1311,0.135,0.1334,0.1337,0.1354,0.1354,0.138,0.1382,0.1387,0.1426,0.1433,0.1472,0.1419,0.1532,0.1535,0.1538,0.159,0.1599,0.1606,0,0,0,0,0,0.1272,0.1287,0.1287,0.1291,0.132,0.1351,0.1356,0.1364,0.1355,0.1374,0.1388,0.1382,0.1452,0.143,0.1437,0.1478,0.153,0.1534,0.1538,0.1587,0.1597,0.1605,0,0,0,0,0,0,0.1272,0.129,0.129,0.131,0.1331,0.1351,0.1368,0.137,0.1397,0.1396,0.1403,0.1408,0.1456,0.146,0.1435,0.1524,0.1492,0.1497,0.1526,0.1536,0.1543,0.155,0.1421,0,0,0,0,0,0.1275,0.1293,0.131,0.1328,0.1339,0.1355,0.1368,0.1375,0.1395,0.1406,0.1422,0.1445,0.148,0.1499,0.1525,0.1574,0.1611,0.1606,0.1614,0.162,0.1632,0.1741,0.176,0.1553,0.1553,0.1553,0,0,0.1279,0.1292,0.1302,0.133,0.1346,0.1377,0.1362,0.1388,0.1418,0.1408,0.1455,0.1471,0.1498,0.1552,0.1575,0.156,0.1697,0.1625,0.163,0.1639,0.1748,0.1768,0.1786,0.1556,0.1555,0.1555,0,0,0.1303,0.1311,0.1336,0.1357,0.1382,0.1396,0.1405,0.1431,0.1449,0.1494,0.1497,0.1536,0.1583,0.1615,0.1636,0.1703,0.1732,0.1711,0.1762,0.1868,0.1887,0.1903,0.1969,0.1991,0.1718,0.1719,0.1719,0,0.1306,0.1339,0.1349,0.1381,0.1398,0.1407,0.1439,0.1468,0.1503,0.1527,0.1516,0.1604,0.1619,0.1697,0.172,0.1722,0.1777,0.1723,0.188,0.1897,0.1914,0.1977,0.2001,0.1722,0.1721,0.1721,0.1721,0,0.1352,0.1377,0.1395,0.1436,0.1461,0.1489,0.152,0.1551,0.1567,0.1595,0.1667,0.1695,0.1752,0.1764,0.1764,0.1882,0.1881,0.1876,0.1858,0.1938,0.1999,0.2023,0.1726,0.1725,0.1724,0.1723,0,0,0.1361,0.1414,0.1421,0.1444,0.1488,0.1512,0.1567,0.1621,0.1669,0.1706,0.1792,0.1834,0.1851,0.1876,0.1888,0.1971,0.2121,0.1977,0.1981,0.2043,0.2349,0.2233,0.2247,0.2158,0.2162,0.2166,0.2343,0,0.1392,0.1448,0.1471,0.1527,0.1557,0.1583,0.1637,0.1686,0.1735,0.1825,0.1867,0.1956,0.1896,0.1951,0.2018,0.2125,0.2189,0.2072,0.2261,0.2266,0.2155,0.2272,0.2102,0.2236,0.2366,0.237,0.2373,0,0.1431,0.1462,0.1515,0.1571,0.1588,0.1624,0.1704,0.1756,0.1869,0.1929,0.2008,0.2055,0.2187,0.2132,0.2318,0.2257,0.2299,0.2351,0.236,0.2249,0.2194,0.2179,0.2274,0.2413,0.241,0.2407,0.2404,0,0.1432,0.1492,0.1531,0.155,0.1619,0.1649,0.169,0.1781,0.1864,0.2018,0.2119,0.2232,0.2345,0.2432,0.2486,0.2453,0.2682,0.2655,0.2568,0.2559,0.2447,0.2419,0.2768,0.2768,0.2767,0.2767,0.2766,0,0.1457,0.1489,0.1531,0.1555,0.1622,0.1655,0.1747,0.1821,0.1964,0.2096,0.2176,0.2313,0.2437,0.2549,0.2575,0.2642,0.2751,0.2605,0.2616,0.2456,0.2429,0.2599,0.2577,0.2773,0.2772,0.2771,0.2769,0,0.1473,0.1489,0.1542,0.1601,0.1628,0.1676,0.1799,0.1877,0.2006,0.2198,0.2275,0.2458,0.2609,0.2653,0.2822,0.2762,0.2835,0.28,0.2573,0.2551,0.2623,0.2602,0.2798,0.2796,0.2794,0.2792,0.2791,0,0.1495,0.152,0.1585,0.1632,0.1664,0.1737,0.1803,0.191,0.2016,0.2273,0.2387,0.2572,0.2655,0.2808,0.2791,0.281,0.2818,0.2623,0.2511,0.2646,0.2637,0.2619,0.2601,0.2395,0.2391,0.2387,0.2385,0,0.1548,0.1561,0.1611,0.1702,0.176,0.1817,0.1918,0.1995,0.2143,0.229,0.2483,0.2562,0.2689,0.2648,0.2626,0.2597,0.2614,0.2546,0.2826,0.2378,0.2272,0.2259,0.2255,0.2352,0.2355,0.2358,0.2359,0.2361,0.1593,0.1631,0.1692,0.1762,0.1845,0.1874,0.1873,0.1986,0.2096,0.2218,0.2388,0.2417,0.2478,0.2365,0.2325,0.2297,0.2444,0.234,0.2351,0.2365,0.2251,0.2143,0.2178,0.218,0.2182,0.2184,0.2185,0,0.1624,0.1662,0.1751,0.1794,0.1834,0.188,0.194,0.1896,0.194,0.2079,0.214,0.1993,0.198,0.2047,0.1981,0.1974,0.1941,0.1887,0.1859,0.1893,0.1923,0.1784,0.1589,0.1587,0.1585,0.1583,0,0,0.1635,0.1671,0.1678,0.1716,0.1774,0.1748,0.1722,0.1701,0.1754,0.1708,0.1716,0.1805,0.1978,0.1743,0.1738,0.1678,0.1756,0.1602,0.2087,0.2089,0.2116,0.2199,0.2026,0,0,0,0,0]},{"header":{"parameterUnit":"m.s-1","parameterCategory":2,"la1":30.2991,"la2":30.254,"lo1":-89.0895,"lo2":-89.0444,"dy":0.0017,"dx":0.0017,"nx":28,"ny":28,"refTime":"2024-04-25T03:00:00:Z","depth":"2","parameterNumber":3,"parameterNumberName":"V-component_of_CURRENTS"},"data":[0,0,0,0,0,0,0,0,0,0,0,0,0,0,0,0,0,0,0,0,0,0,0,0,0,0,0,0,0,0,0,0,0,0,0,0,0,0,0,0,0,0,0,0,0,0,0,0,0,0,0,0,0,0,0,0,0,0,-0.0437,-0.0438,0,-0.0455,-0.0455,-0.0455,-0.0465,-0.0465,-0.0465,-0.0465,-0.0466,-0.0466,-0.0466,0,0,0,0,0,0,0,0,0,0,0,0,0,-0.0382,-0.0383,-0.0437,-0.0438,-0.0438,-0.0455,-0.0455,-0.0455,-0.0465,-0.0465,-0.0465,-0.0465,-0.0466,-0.0466,-0.0466,0,0,0,0,0,0,0,0,0,0,0,0,0,-0.0403,-0.0383,-0.0437,-0.0445,-0.0445,-0.0455,-0.0455,-0.0456,-0.0465,-0.0465,-0.0465,-0.0465,-0.0466,-0.0466,-0.0466,-0.0466,0,0,-0.0467,-0.0467,0,0,0,0,0,0,0,0,-0.0402,-0.0405,-0.0443,-0.0444,-0.0445,-0.0458,-0.0436,-0.0458,-0.0465,-0.0457,-0.0465,-0.0465,-0.0462,-0.0462,-0.0466,-0.0466,-0.0466,-0.0467,-0.0467,-0.0467,-0.0467,0,0,0,0,0,0,0,-0.0401,-0.0405,-0.0444,-0.0443,-0.0445,-0.0437,-0.044,-0.044,-0.0459,-0.0458,-0.0459,-0.0461,-0.0462,-0.0466,-0.0466,-0.0466,-0.0467,-0.0467,-0.0467,-0.0467,-0.0454,-0.0453,0,0,0,0,0,0,-0.04,-0.0403,-0.0444,-0.0445,-0.0423,-0.0438,-0.0441,-0.0454,-0.0459,-0.046,-0.0461,-0.0461,-0.0466,-0.0466,-0.0466,-0.0427,-0.0467,-0.0467,-0.0467,-0.0454,-0.0454,-0.0453,0,0,0,0,0,0,-0.0399,-0.0404,-0.0443,-0.0424,-0.0428,-0.0439,-0.0452,-0.0454,-0.0443,-0.0462,-0.0462,-0.0447,-0.0466,-0.0466,-0.0454,-0.0428,-0.0467,-0.0467,-0.0455,-0.0454,-0.0454,-0.0373,0,0,0,0,0,0,-0.0398,-0.0404,-0.0401,-0.0424,-0.0429,-0.0437,-0.0452,-0.0454,-0.0446,-0.0446,-0.045,-0.0451,-0.0466,-0.0454,-0.0454,-0.0429,-0.0467,-0.0455,-0.0454,-0.0454,-0.0376,-0.037,-0.0364,0,0,0,0,0,-0.0396,-0.0396,-0.0401,-0.0405,-0.0429,-0.0436,-0.0437,-0.0445,-0.0444,-0.0436,-0.0439,-0.045,-0.0451,-0.0454,-0.0454,-0.0428,-0.0455,-0.0455,-0.0454,-0.0379,-0.0371,-0.0365,0,0,0,0,0,0,-0.0369,-0.0398,-0.0403,-0.0412,-0.0416,-0.0438,-0.0432,-0.0433,-0.0429,-0.0428,-0.044,-0.0442,-0.0426,-0.0441,-0.0444,-0.0426,-0.0457,-0.0456,-0.04,-0.0393,-0.0387,-0.0395,-0.0467,0,0,0,0,0,-0.0362,-0.037,-0.0391,-0.0393,-0.0398,-0.0409,-0.0409,-0.0415,-0.042,-0.0418,-0.042,-0.0426,-0.0426,-0.0419,-0.043,-0.041,-0.0443,-0.0398,-0.0392,-0.0386,-0.0396,-0.0403,-0.0398,-0.0451,-0.0451,-0.0451,0,0,-0.0348,-0.0367,-0.0367,-0.0387,-0.0395,-0.039,-0.0409,-0.0408,-0.0393,-0.0419,-0.0394,-0.0405,-0.042,-0.0404,-0.0398,-0.0408,-0.0393,-0.0385,-0.038,-0.0393,-0.0402,-0.0396,-0.0392,-0.045,-0.045,-0.045,0,0,-0.0326,-0.0346,-0.0341,-0.0348,-0.0359,-0.0368,-0.0361,-0.0373,-0.0366,-0.0348,-0.0365,-0.036,-0.0355,-0.0361,-0.0363,-0.0331,-0.0367,-0.0331,-0.0297,-0.0302,-0.0298,-0.0294,-0.0344,-0.0346,-0.0321,-0.032,-0.032,0,-0.0302,-0.0314,-0.0337,-0.0336,-0.0335,-0.0352,-0.034,-0.0336,-0.0335,-0.0329,-0.0331,-0.0335,-0.0336,-0.0325,-0.0311,-0.0316,-0.0342,-0.0315,-0.0293,-0.029,-0.0288,-0.034,-0.0343,-0.0316,-0.0317,-0.0317,-0.0318,0,-0.0282,-0.0285,-0.0285,-0.0291,-0.0287,-0.0285,-0.0288,-0.0275,-0.0268,-0.0269,-0.0258,-0.027,-0.0271,-0.0266,-0.0272,-0.0256,-0.029,-0.0287,-0.0306,-0.0277,-0.0335,-0.0339,-0.0311,-0.0312,-0.0313,-0.0314,0,0,-0.024,-0.0265,-0.0261,-0.0257,-0.0267,-0.0261,-0.0237,-0.0226,-0.0206,-0.0208,-0.0171,-0.0187,-0.0202,-0.0208,-0.0219,-0.022,-0.0219,-0.0237,-0.0239,-0.0281,-0.0264,-0.0311,-0.0321,-0.0202,-0.0202,-0.0202,-0.0316,0,-0.0213,-0.0207,-0.0223,-0.0197,-0.0194,-0.0202,-0.0174,-0.0164,-0.0158,-0.0124,-0.014,-0.0112,-0.0175,-0.0151,-0.0173,-0.017,-0.0225,-0.0192,-0.0294,-0.0298,-0.0335,-0.0325,-0.0268,-0.0366,-0.0321,-0.0321,-0.0322,0,-0.0184,-0.0188,-0.0168,-0.0158,-0.0154,-0.0135,-0.0105,-0.0085,-0.006,-0.0036,-0.0041,-0.0049,-0.0034,-0.0083,-0.0149,-0.0118,-0.021,-0.0247,-0.0251,-0.0328,-0.0352,-0.0386,-0.0376,-0.033,-0.0329,-0.0329,-0.0328,0,-0.015,-0.0143,-0.0128,-0.0127,-0.0117,-0.0097,-0.0082,-0.0065,-0.001,0.0027,0.0088,0.0048,0.0096,-0.0011,-0.0134,-0.0109,-0.0235,-0.02,-0.0373,-0.0379,-0.0371,-0.0376,-0.032,-0.032,-0.032,-0.032,-0.0319,0,-0.0123,-0.0109,-0.011,-0.0104,-0.0054,-0.0065,-0.0011,0.0015,0.0086,0.0163,0.0134,0.0174,0.0124,0.0036,-0.0108,-0.0268,-0.0236,-0.0382,-0.0404,-0.0345,-0.0346,-0.0343,-0.0344,-0.0324,-0.0323,-0.0322,-0.0322,0,-0.009,-0.0101,-0.0079,-0.0062,-0.004,-0.0007,0.0075,0.0107,0.0176,0.0291,0.0334,0.0336,0.0229,0.006,-0.0091,-0.0206,-0.0372,-0.0486,-0.0443,-0.0457,-0.0515,-0.051,-0.0587,-0.059,-0.0592,-0.0594,-0.0595,0,-0.0081,-0.007,-0.0032,0.0002,0.0012,0.0063,0.0099,0.0164,0.0234,0.0353,0.0427,0.0372,0.0295,0.0021,-0.0177,-0.0446,-0.0511,-0.0575,-0.051,-0.0525,-0.0539,-0.0531,-0.0524,-0.0479,-0.048,-0.048,-0.048,0,-0.0058,-0.0044,-0.0017,0.0051,0.009,0.0144,0.0219,0.0288,0.0372,0.0457,0.0497,0.0443,0.0245,0.0036,-0.0296,-0.0471,-0.0493,-0.0588,-0.0603,-0.042,-0.0431,-0.0442,-0.0437,-0.0483,-0.0483,-0.0483,-0.0482,-0.0482,-0.0045,-0.002,0.0017,0.0076,0.0147,0.019,0.0224,0.0319,0.0397,0.0561,0.0518,0.0512,0.0325,-0.0041,-0.0336,-0.0568,-0.0558,-0.0604,-0.0599,-0.0595,-0.0561,-0.0575,-0.0651,-0.0651,-0.0652,-0.0652,-0.0653,0,-0.009,-0.0051,0.0033,0.0069,0.0127,0.0184,0.0285,0.0346,0.0404,0.0588,0.0639,0.0483,0.0251,0.0008,-0.0314,-0.0543,-0.0525,-0.0621,-0.0529,-0.0525,-0.0523,-0.0482,-0.0552,-0.0553,-0.0553,-0.0553,0,0,-0.0119,-0.0114,-0.0079,-0.0004,0.0069,0.0152,0.0192,0.0341,0.0514,0.0625,0.0712,0.0754,0.0416,0.021,-0.0129,-0.0323,-0.0362,-0.0365,-0.0422,-0.027,-0.0264,-0.0496,-0.0429,0,0,0,0,0]}],[{"header":{"parameterUnit":"m.s-1","parameterCategory":2,"la1":30.2991,"la2":30.254,"lo1":-89.0895,"lo2":-89.0444,"dy":0.0017,"dx":0.0017,"nx":28,"ny":28,"refTime":"2024-04-25T03:00:00:Z","depth":"4","parameterNumber":2,"parameterNumberName":"U-component_of_CURRENTS"},"data":[0,0,0,0,0,0,0,0,0,0,0,0,0,0,0,0,0,0,0,0,0,0,0,0,0,0,0,0,0,0,0,0,0,0,0,0,0,0,0,0,0,0,0,0,0,0,0,0,0,0,0,0,0,0,0,0,0,0,0.0729,0.0729,0,0.0752,0.0752,0.0752,0.078,0.0781,0.0781,0.0782,0.0822,0.0822,0.0822,0,0,0,0,0,0,0,0,0,0,0,0,0,0.0684,0.0685,0.0729,0.0729,0.073,0.0752,0.0752,0.0752,0.078,0.0781,0.0782,0.0782,0.0821,0.0822,0.0822,0,0,0,0,0,0,0,0,0,0,0,0,0,0.0702,0.0685,0.0729,0.0749,0.0751,0.0752,0.0752,0.0752,0.078,0.0781,0.0782,0.0783,0.0821,0.0822,0.0822,0.0805,0,0,0.0824,0.0824,0,0,0,0,0,0,0,0,0.0701,0.0703,0.0745,0.0747,0.075,0.0766,0.075,0.0771,0.0779,0.0766,0.0782,0.0783,0.0806,0.0808,0.0805,0.0807,0.0808,0.0824,0.0825,0.0825,0.0825,0,0,0,0,0,0,0,0.07,0.0703,0.0735,0.0746,0.0749,0.0748,0.0751,0.0754,0.0778,0.0767,0.077,0.0776,0.0807,0.0805,0.0807,0.0809,0.0824,0.0825,0.0825,0.0825,0.089,0.0891,0,0,0,0,0,0,0.0703,0.0701,0.0734,0.0736,0.0731,0.0748,0.0752,0.0758,0.0777,0.0782,0.0776,0.0778,0.0803,0.0806,0.0808,0.0876,0.0825,0.0825,0.0826,0.0889,0.089,0.0892,0,0,0,0,0,0,0.0702,0.0705,0.0733,0.0721,0.0725,0.0748,0.0754,0.0758,0.0779,0.0784,0.0789,0.0796,0.0804,0.0807,0.0836,0.0874,0.0826,0.0826,0.0887,0.0889,0.0891,0.0955,0,0,0,0,0,0,0.07,0.0705,0.0717,0.0722,0.0726,0.075,0.0753,0.0757,0.0781,0.0785,0.0803,0.0806,0.0805,0.0835,0.0836,0.0874,0.0827,0.0885,0.0888,0.089,0.0952,0.0959,0.0966,0,0,0,0,0,0.0699,0.071,0.0717,0.0722,0.074,0.0751,0.0753,0.0771,0.0782,0.0793,0.0811,0.0807,0.0853,0.0836,0.0838,0.0877,0.0884,0.0887,0.089,0.0948,0.0958,0.0966,0,0,0,0,0,0,0.0695,0.0714,0.0722,0.0739,0.0752,0.0757,0.0773,0.0781,0.0802,0.0815,0.0817,0.0821,0.0863,0.0857,0.0838,0.0903,0.0871,0.0874,0.0914,0.0923,0.093,0.0955,0.0827,0,0,0,0,0,0.07,0.0715,0.0729,0.0743,0.0754,0.0766,0.0776,0.079,0.0805,0.0816,0.0831,0.085,0.0871,0.0887,0.0898,0.0928,0.0925,0.0956,0.0963,0.0969,0.0991,0.0995,0.1004,0.0902,0.0902,0.0902,0,0,0.0702,0.0715,0.0723,0.0744,0.0757,0.0773,0.0775,0.08,0.082,0.0817,0.0857,0.0874,0.0883,0.0922,0.0941,0.0927,0.1,0.0973,0.0979,0.0997,0.0999,0.1009,0.1018,0.0904,0.0903,0.0903,0,0,0.0707,0.0727,0.0741,0.0756,0.0784,0.0792,0.0805,0.0828,0.0849,0.0883,0.0893,0.0931,0.0958,0.0976,0.0986,0.1036,0.1035,0.1052,0.1115,0.1118,0.1127,0.1134,0.1156,0.1164,0.106,0.106,0.106,0,0.071,0.0729,0.0746,0.0764,0.0784,0.0804,0.0826,0.0844,0.0876,0.091,0.0908,0.0977,0.0981,0.1034,0.1068,0.1054,0.1069,0.108,0.1128,0.1135,0.1141,0.1161,0.117,0.1064,0.1063,0.1063,0.1063,0,0.072,0.0745,0.0757,0.0787,0.0809,0.0832,0.0862,0.0897,0.0929,0.096,0.103,0.1039,0.1089,0.1097,0.1106,0.117,0.1171,0.1131,0.1105,0.1156,0.1173,0.1182,0.1069,0.1067,0.1066,0.1065,0,0,0.0697,0.0753,0.0758,0.0779,0.0828,0.084,0.0893,0.0948,0.0998,0.1041,0.11,0.1153,0.1188,0.1203,0.1214,0.1232,0.1293,0.1227,0.1225,0.1248,0.1334,0.128,0.1283,0.1271,0.1273,0.1274,0.1332,0,0.0701,0.0735,0.0769,0.0807,0.0828,0.0878,0.0924,0.0984,0.1043,0.1105,0.1145,0.1208,0.1217,0.1259,0.1281,0.1293,0.1317,0.1283,0.1282,0.1282,0.1227,0.129,0.1279,0.1338,0.134,0.1341,0.1342,0,0.0694,0.0721,0.0765,0.0826,0.0842,0.0885,0.0977,0.1028,0.113,0.1175,0.1258,0.1293,0.1366,0.1334,0.1396,0.1384,0.1383,0.1374,0.1375,0.131,0.1243,0.1273,0.1356,0.1355,0.1354,0.1353,0.1352,0,0.0651,0.0712,0.075,0.077,0.0848,0.0904,0.0967,0.1076,0.114,0.1251,0.1306,0.1377,0.1424,0.1438,0.1459,0.1443,0.1493,0.1445,0.1391,0.1387,0.1388,0.1379,0.147,0.147,0.147,0.147,0.147,0,0.0628,0.0649,0.0747,0.0763,0.0834,0.0908,0.1007,0.1082,0.1201,0.1274,0.1365,0.1413,0.1457,0.1493,0.1487,0.1483,0.1516,0.1429,0.1403,0.1415,0.1409,0.1394,0.1384,0.1472,0.1472,0.1471,0.1471,0,0.0563,0.0622,0.0665,0.077,0.0819,0.0881,0.1034,0.1096,0.1228,0.1323,0.1367,0.1471,0.153,0.1555,0.1569,0.1519,0.1505,0.1483,0.1529,0.15,0.1394,0.1387,0.1443,0.1441,0.144,0.1439,0.1438,0,0.0531,0.0549,0.0665,0.071,0.0772,0.0882,0.0955,0.11,0.116,0.1339,0.1357,0.1483,0.1529,0.1518,0.1544,0.1539,0.1506,0.1493,0.1428,0.1425,0.1394,0.1389,0.1383,0.1437,0.1436,0.1436,0.1436,0,0.0462,0.0513,0.0555,0.0662,0.0749,0.0821,0.0939,0.0974,0.1127,0.1251,0.1333,0.1393,0.1452,0.1475,0.1491,0.147,0.15,0.148,0.1482,0.1421,0.1418,0.1387,0.1383,0.1432,0.1432,0.1433,0.1433,0,0.042,0.0436,0.0515,0.0596,0.0688,0.0738,0.0809,0.0892,0.0982,0.1175,0.1192,0.1323,0.1426,0.144,0.1445,0.1444,0.1416,0.1349,0.1356,0.1361,0.1308,0.1291,0.1267,0,0,0,0,0,0.0382,0.039,0.0446,0.0524,0.0602,0.0665,0.0778,0.0845,0.0985,0.1014,0.1111,0.1168,0.1247,0.131,0.1292,0.1396,0.14,0.1368,0.132,0.141,0.1415,0.136,0,0,0,0,0,0,0.0356,0.0397,0.0414,0.0444,0.0481,0.0565,0.0631,0.0729,0.0751,0.0904,0.0947,0.1089,0.1166,0.1237,0.1264,0.1283,0.1229,0.1457,0.1454,0.1408,0.1412,0.1416,0.1361,0,0,0,0,0]},{"header":{"parameterUnit":"m.s-1","parameterCategory":2,"la1":30.2991,"la2":30.254,"lo1":-89.0895,"lo2":-89.0444,"dy":0.0017,"dx":0.0017,"nx":28,"ny":28,"refTime":"2024-04-25T03:00:00:Z","depth":"4","parameterNumber":3,"parameterNumberName":"V-component_of_CURRENTS"},"data":[0,0,0,0,0,0,0,0,0,0,0,0,0,0,0,0,0,0,0,0,0,0,0,0,0,0,0,0,0,0,0,0,0,0,0,0,0,0,0,0,0,0,0,0,0,0,0,0,0,0,0,0,0,0,0,0,0,0,-0.0227,-0.0227,0,-0.0238,-0.0238,-0.0238,-0.0263,-0.0264,-0.0265,-0.0265,-0.0345,-0.0346,-0.0348,0,0,0,0,0,0,0,0,0,0,0,0,0,-0.0212,-0.0212,-0.0227,-0.0227,-0.0228,-0.0238,-0.0238,-0.0238,-0.0263,-0.0264,-0.0265,-0.0266,-0.0344,-0.0346,-0.0348,0,0,0,0,0,0,0,0,0,0,0,0,0,-0.0219,-0.0212,-0.0227,-0.0243,-0.0244,-0.0238,-0.0238,-0.0238,-0.0263,-0.0264,-0.0265,-0.0266,-0.0343,-0.0346,-0.0348,-0.0342,0,0,-0.0355,-0.0356,0,0,0,0,0,0,0,0,-0.0218,-0.0219,-0.024,-0.0241,-0.0243,-0.0252,-0.0262,-0.0277,-0.0263,-0.0254,-0.0265,-0.0267,-0.032,-0.0324,-0.0321,-0.0346,-0.0349,-0.0355,-0.0356,-0.0357,-0.0358,0,0,0,0,0,0,0,-0.0218,-0.0219,-0.023,-0.024,-0.0242,-0.0243,-0.0245,-0.0264,-0.0282,-0.0255,-0.0257,-0.0261,-0.0321,-0.0319,-0.0323,-0.035,-0.0355,-0.0357,-0.0358,-0.0359,-0.0414,-0.0414,0,0,0,0,0,0,-0.0219,-0.0218,-0.023,-0.0231,-0.0234,-0.0243,-0.0245,-0.0247,-0.028,-0.0286,-0.026,-0.0262,-0.0314,-0.0321,-0.0326,-0.0343,-0.0357,-0.0359,-0.0361,-0.0414,-0.0414,-0.0414,0,0,0,0,0,0,-0.0218,-0.022,-0.0229,-0.0226,-0.0227,-0.0242,-0.0244,-0.0247,-0.0256,-0.0283,-0.029,-0.0269,-0.0315,-0.0323,-0.0347,-0.0346,-0.036,-0.0362,-0.0414,-0.0414,-0.0414,-0.0364,0,0,0,0,0,0,-0.0218,-0.0219,-0.0223,-0.0226,-0.0228,-0.0228,-0.0243,-0.0246,-0.0257,-0.026,-0.0293,-0.03,-0.0317,-0.0343,-0.0349,-0.0349,-0.0364,-0.0414,-0.0414,-0.0414,-0.0365,-0.0362,-0.0359,0,0,0,0,0,-0.0217,-0.0214,-0.0223,-0.0225,-0.0232,-0.0228,-0.0229,-0.0242,-0.0256,-0.0256,-0.0278,-0.03,-0.0349,-0.0344,-0.0351,-0.0353,-0.0413,-0.0414,-0.0414,-0.0366,-0.0363,-0.0359,0,0,0,0,0,0,-0.0207,-0.0216,-0.0227,-0.0227,-0.0231,-0.0233,-0.0234,-0.0245,-0.026,-0.027,-0.0297,-0.0305,-0.0328,-0.0348,-0.0342,-0.0371,-0.0387,-0.0388,-0.0348,-0.0345,-0.0342,-0.0326,-0.0366,0,0,0,0,0,-0.0207,-0.0208,-0.0217,-0.0216,-0.0219,-0.0229,-0.0232,-0.0241,-0.0253,-0.0261,-0.0284,-0.0311,-0.0331,-0.0344,-0.0367,-0.0377,-0.0407,-0.0385,-0.0382,-0.038,-0.0372,-0.0415,-0.0415,-0.0415,-0.0415,-0.0415,0,0,-0.0202,-0.0208,-0.0208,-0.0214,-0.0219,-0.0201,-0.0232,-0.0236,-0.0221,-0.0269,-0.0265,-0.0305,-0.0333,-0.0345,-0.0358,-0.0363,-0.0397,-0.038,-0.0377,-0.0371,-0.0415,-0.0415,-0.0415,-0.0415,-0.0415,-0.0415,0,0,-0.0177,-0.0199,-0.0184,-0.0183,-0.0191,-0.0193,-0.0196,-0.0206,-0.0214,-0.0219,-0.0251,-0.0285,-0.0314,-0.0329,-0.0341,-0.0337,-0.0383,-0.0356,-0.0323,-0.0365,-0.0365,-0.0366,-0.0407,-0.0411,-0.035,-0.035,-0.035,0,-0.0171,-0.0148,-0.0179,-0.0158,-0.0146,-0.0185,-0.0154,-0.0163,-0.018,-0.0189,-0.0215,-0.0269,-0.0299,-0.0308,-0.031,-0.0328,-0.0366,-0.0331,-0.036,-0.0361,-0.0363,-0.0405,-0.041,-0.0348,-0.0348,-0.0348,-0.0348,0,-0.0123,-0.0107,-0.0097,-0.0079,-0.0076,-0.0059,-0.0072,-0.0082,-0.0108,-0.0126,-0.0161,-0.0207,-0.0244,-0.0261,-0.0283,-0.0308,-0.0336,-0.0354,-0.0365,-0.0359,-0.0404,-0.0411,-0.0344,-0.0345,-0.0346,-0.0346,0,0,-0.0102,-0.0067,-0.0063,-0.0035,-0.003,-0.002,-0.0006,-0.0005,-0.0012,-0.0053,-0.0064,-0.0109,-0.0169,-0.0187,-0.0234,-0.0267,-0.0314,-0.0315,-0.0318,-0.0348,-0.0416,-0.0371,-0.0374,-0.0345,-0.0346,-0.0346,-0.0444,0,-0.0049,0.0017,0.0017,0.008,0.0115,0.0089,0.0106,0.0089,0.0049,0.0019,-0.0046,-0.0086,-0.013,-0.017,-0.0207,-0.03,-0.0329,-0.0286,-0.0423,-0.0427,-0.0381,-0.0379,-0.0349,-0.0449,-0.0451,-0.0452,-0.0453,0,0.0001,0.0044,0.0119,0.0165,0.0175,0.0197,0.0196,0.0201,0.0141,0.0102,0.0039,-0.0032,-0.01,-0.0139,-0.0269,-0.0248,-0.0321,-0.0383,-0.0389,-0.0365,-0.0393,-0.0458,-0.0466,-0.0465,-0.0464,-0.0463,-0.0462,0,0.004,0.0112,0.0177,0.0196,0.0237,0.0252,0.0257,0.0217,0.0206,0.0132,0.0094,0.0004,-0.0062,-0.0162,-0.0293,-0.0299,-0.0433,-0.0457,-0.0475,-0.0473,-0.0508,-0.0507,-0.0526,-0.0526,-0.0526,-0.0525,-0.0525,0,0.0099,0.0147,0.0198,0.0234,0.0277,0.0291,0.0301,0.0277,0.0243,0.022,0.0126,0.0081,-0.0076,-0.0176,-0.0285,-0.0398,-0.043,-0.0465,-0.0491,-0.0486,-0.0481,-0.0514,-0.0511,-0.0529,-0.0528,-0.0527,-0.0527,0,0.0114,0.0164,0.0224,0.0281,0.0292,0.0307,0.032,0.0317,0.0286,0.025,0.0225,0.0115,-0.0014,-0.0149,-0.0321,-0.0383,-0.0497,-0.052,-0.0501,-0.0526,-0.0516,-0.051,-0.0565,-0.0564,-0.0563,-0.0563,-0.0562,0,0.0125,0.0165,0.0226,0.0241,0.0261,0.029,0.03,0.0314,0.0315,0.0273,0.0258,0.0141,0.0056,-0.0139,-0.0287,-0.0468,-0.048,-0.054,-0.0525,-0.0498,-0.0519,-0.0513,-0.0508,-0.0561,-0.0561,-0.0561,-0.056,0,0.012,0.0135,0.0169,0.0208,0.0233,0.0283,0.0311,0.0327,0.0343,0.032,0.0287,0.0183,0.0054,-0.0113,-0.0242,-0.0374,-0.0508,-0.0533,-0.0536,-0.0523,-0.0494,-0.0514,-0.051,-0.0558,-0.0558,-0.0558,-0.0559,0,0.0073,0.0081,0.0118,0.0162,0.0197,0.0271,0.0296,0.0333,0.0355,0.0343,0.0327,0.0195,0.0112,-0.0064,-0.0192,-0.0308,-0.0342,-0.0376,-0.0388,-0.0392,-0.0305,-0.024,-0.0243,0,0,0,0,0,0.0022,0.0047,0.0073,0.0141,0.0188,0.024,0.03,0.0335,0.0369,0.0361,0.0361,0.0252,0.0077,-0.0015,-0.0121,-0.0202,-0.0382,-0.0331,-0.0432,-0.0543,-0.0546,-0.0467,0,0,0,0,0,0,-0.0018,-0.0001,0.0058,0.0132,0.0185,0.0263,0.0319,0.035,0.0362,0.0365,0.0273,0.0237,0.0057,0.0143,-0.0119,-0.0158,-0.0233,-0.0417,-0.0418,-0.0542,-0.0544,-0.0547,-0.0466,0,0,0,0,0]}]]